Other Public Products
Issued by NWS Charleston, SC

Current Version | Previous Version | Graphics & Text | Print | Product List | Glossary On
Versions: 1 2 3 4 5 6 7 8 9 10 11 12 13 14 15 16 17 18 19 20 21 22 23 24 25 26 27 28 29 30 31 32 33 34 35 36 37 38 39 40 41 42 43 44 45 46 47 48 49 50
630 FPUS82 KCHS 211512 OPUCHS TEST...KCHS/KSAV Gateway Observations...TEST National Weather Service Charleston SC 1000 AM EST TUE NOV 21 2017 NOTE: "fair" indicates few or no clouds below 12,000 feet with no significant weather and/or obstructions to visibility. SCZ050-WAZ558-NCZ071-TXZ119-213-PAZ071-DCZ001-FLZ074-172-MI076- NYZ176-178-MAZ016-IL014-TNZ027-NJZ106-GAZ044-MD014-211600- ...Gateway Observations for Charleston International... CITY SKY/WX TMP DP RH WIND PRES REMARKS Chas Airport PTSUNNY 60 52 74 NE6 30.18S Seattle LGT RAIN 42 41 96 N7 29.97F FOG Charlotte CLOUDY 51 36 56 S6 30.19F Dallas DFW MOSUNNY 53 50 89 S8 29.86S Dallas Love PTSUNNY 53 50 89 S12 29.89S Philladelphia PTSUNNY 52 31 44 SW18G24 30.14F Wash National PTSUNNY 50 31 48 SW15 30.15F Baltimore PTSUNNY 51 30 44 SW14 30.13S Miami MOSUNNY 80 70 71 SE7 30.00S Detroit CLOUDY 44 29 55 SW20G33 29.74R Newark MOSUNNY 52 32 46 SW15G28 30.12F Laguardia MOSUNNY 52 31 44 S15 30.12F J F K MOSUNNY 52 36 54 SW16 30.15F Boston Logan MOSUNNY 51 30 44 SW17 30.10F Ft. Lauderdale MOSUNNY 79 69 71 S7 30.00S Chicago O`Hare LGT RAIN 44 32 62 W14 29.74R Chicago Midway CLOUDY 44 33 65 W14G24 29.75R Houston Bush PTSUNNY 64 59 83 SE3 29.93S Houston Hobby PTSUNNY 67 64 90 SE3 29.93R Nashville MOSUNNY 48 35 60 S9 30.09F Atlanta CLOUDY 52 43 71 E9 30.13F $$ GAZ044-118-TXZ119-213-NCZ071-DCZ001-MDZ014-506-PAZ021-071-NJZ106- NYZ176-178-MAZ106-OHZ011-021-055-MIZ076-KYZ091-ILZ014-INZ047- MNZ060-ONZ431-211600- ...Gateway Observations for Savannah International... CITY SKY/WX TMP DP RH WIND PRES REMARKS Savannah Arpt CLOUDY 64 55 72 NE8 30.14S Atlanta CLOUDY 52 43 71 E9 30.13F Charlotte CLOUDY 51 36 56 S6 30.19F Dallas DFW MOSUNNY 53 50 89 S8 29.86S Houston Bush PTSUNNY 64 59 83 SE3 29.93S Wash National PTSUNNY 50 31 48 SW15 30.15F Wash Dulles MOSUNNY 48 30 49 S10 30.13S Baltimore PTSUNNY 51 30 44 SW14 30.13S Philadelphia PTSUNNY 52 31 44 SW18G24 30.14F Newark MOSUNNY 52 32 46 SW15G28 30.12F Laguardia MOSUNNY 52 31 44 S15 30.12F J F K MOSUNNY 52 36 54 SW16 30.15F Boston MOSUNNY 51 30 44 SW17 30.10F Pittsburg PTSUNNY 49 27 42 SW17G29 29.95F Akron PTSUNNY 45 25 45 SW23G36 29.88S Cleveland PTSUNNY 47 26 44 S16G29 29.85F Cincinnati PTSUNNY 44 30 57 SW14 29.96S Columbus MOSUNNY 45 29 54 SW22G28 29.95F Detroit CLOUDY 44 29 55 SW20G33 29.74R Chicago O`Hare LGT RAIN 44 32 62 W14 29.74R Minneapolis MOSUNNY 23 11 60 NW22G28 29.98R WCI 8 Indianapolis PTSUNNY 46 29 51 SW15 29.89R Toronto Canada PTSUNNY 48 32 53 SW22G29 29.67S $$

USA.gov is the U.S. government's official web portal to all federal, state and local government web resources and services.